Flag for Gibraltar Weather past 2 weeks in Gibraltar, Gibraltar

Now
68 °F

Partly sunny.


Feels Like: 68 °F
Forecast: 66 / 73 °F
Wind: 12 mph from East

Location: Gibraltar Airport

Current Time: Oct 25, 2014 at 10:18:21 AM

Latest Report: Oct 25, 2014 at 9:50 AM


Visibility: N/A

Pressure: 30.07 "Hg

Humidity: 83%

Dew point: 63 °F

Location of GibraltarLocation

Historic Weather in Gibraltar — Graph

°F

Gibraltar temperature yesterday

Maximum temperature yesterday: 70 °F (at 12:50 PM)
Minimum temperature yesterday: 63 °F (at 8:50 AM)
Average temperature yesterday: 67 °F

Past Weeks' High & Low Weather Summary

 TemperatureHumidityPressure
High91 °F (Oct 22, 4:50 PM)100% (Oct 11, 4:50 AM)30.27 "Hg (Oct 11, 4:50 AM)
Low61 °F (Oct 13, 7:50 AM)17% (Oct 22, 4:50 PM)29.80 "Hg (Oct 11, 4:50 PM)
Average69 °F79%30.03 "Hg
* Reported Oct 10 8:50 AM — Oct 25 8:50 AM, Gibraltar, Weather by CustomWeather, © 2014

Note: Actual official high and low records may vary slightly from our data, if they occured in-between our weather recording intervals... More about our weather records

Advertising

Gibraltar weather history for previous 24 hours

 ConditionsComfort  
Time TempWeatherWind HumidityBarometerVisibility
8:50 AM
Oct 25
68 °FPassing clouds.12 mph83%30.04 "HgN/A
7:50 AM68 °FPassing clouds.10 mph78%30.04 "HgN/A
6:50 AM68 °FPassing clouds.12 mph73%30.04 "HgN/A
5:50 AM68 °FClear.13 mph69%30.04 "HgN/A
4:50 AM68 °FClear.8 mph60%30.04 "HgN/A
3:50 AM68 °FClear.12 mph69%30.04 "HgN/A
2:50 AM68 °FClear.12 mph78%30.04 "HgN/A
1:50 AM66 °FPassing clouds.13 mph88%30.04 "HgN/A
12:50 AM66 °FPassing clouds.10 mph94%30.04 "HgN/A
11:50 PM
Oct 24
66 °FPassing clouds.10 mph94%30.04 "HgN/A
10:50 PM66 °FPassing clouds.7 mph94%30.04 "Hg6 mi
9:50 PM66 °FPassing clouds.6 mph94%30.04 "Hg6 mi
8:50 PM68 °FPassing clouds.8 mph83%30.01 "HgN/A
7:50 PM68 °FPartly sunny.6 mph88%30.01 "HgN/A
6:50 PM68 °FScattered clouds.7 mph83%30.01 "Hg4 mi
5:50 PM70 °FScattered clouds.9 mph73%29.98 "Hg5 mi
4:50 PM70 °FHaze.7 mph78%29.98 "Hg6 mi
3:50 PM70 °FPassing clouds.8 mph78%30.01 "HgN/A
2:50 PM70 °FPassing clouds.8 mph73%30.01 "HgN/A
1:50 PM68 °FPassing clouds.7 mph78%30.04 "HgN/A
12:50 PM70 °FPassing clouds.7 mph73%30.04 "HgN/A
11:50 AM68 °FPassing clouds.7 mph78%30.04 "HgN/A
10:50 AM68 °FPassing clouds.5 mph73%30.04 "HgN/A
Weather by CustomWeather, © 2014

See weather overviewHow to use our weather pages